GEFSSGP_con_probscp_282.txt.gz
Probability
0 0 0 0 0 0 0 0 0 0 0 0 0 0 0 0 1 1 3 6 8 11 16 22 25 24 21 17 12 8 6 6 5 4 3 3 2 1 2 3 2 1 0 0 0 0 0 0 0
0 0 0 0 0 0 0 0 0 0 0 0 0 0 0 1 2 3 5 8 13 17 20 24 27 26 23 19 13 9 7 6 5 4 3 3 2 1 1 2 2 1 0 0 0 1 1 0 0
0 0 1 1 1 0 0 0 0 0 0 0 0 0 0 1 4 6 8 13 19 22 24 25 27 28 25 21 15 11 9 7 6 5 4 4 3 1 0 1 2 2 1 0 1 2 2 1 0
0 1 2 2 1 0 0 0 0 0 0 0 1 2 3 4 6 9 13 17 20 23 24 24 26 27 25 23 18 14 12 9 8 7 6 5 4 3 1 0 1 2 2 1 1 2 2 1 0
1 2 2 1 0 0 0 0 0 0 0 1 3 6 9 11 13 16 18 20 20 20 21 22 24 25 24 23 21 18 15 13 11 9 7 6 5 4 2 1 0 1 2 2 1 1 1 1 0
2 3 2 1 0 0 0 0 0 0 1 3 5 9 13 16 19 20 21 22 21 20 19 20 23 23 22 22 22 21 18 16 15 12 9 7 6 4 3 1 1 1 1 1 1 1 1 0 0
2 3 2 1 0 0 0 0 0 0 1 3 6 10 13 17 19 19 21 22 22 21 20 20 22 22 20 20 21 21 20 18 17 14 10 7 6 5 4 3 3 2 1 1 2 2 1 0 0
1 2 2 1 0 0 0 0 0 0 2 4 7 9 14 16 17 18 20 22 22 22 20 19 20 20 18 18 19 20 19 19 18 15 11 8 7 6 6 5 4 4 3 1 2 3 1 0 0
0 1 1 1 0 0 0 0 0 1 4 7 9 10 14 17 18 20 20 20 22 21 19 18 18 18 17 17 17 17 17 16 15 12 10 9 8 7 7 6 4 5 4 3 3 3 1 0 0
0 0 0 0 0 0 0 0 0 2 5 10 12 12 14 17 21 21 18 18 20 20 19 17 16 16 16 16 16 16 15 13 11 10 10 9 9 8 7 6 5 5 5 4 4 4 2 0 0
0 0 0 0 0 0 0 0 1 2 5 9 12 13 14 17 20 20 17 15 16 17 18 17 16 15 15 16 16 16 14 10 7 8 9 9 9 8 7 7 6 6 6 6 5 3 1 0 0
0 0 0 0 0 0 0 1 2 3 5 8 12 13 14 17 20 19 17 14 13 15 18 19 16 14 14 15 16 15 12 8 5 5 6 8 8 7 7 7 7 8 8 8 6 3 1 0 0
0 0 0 0 0 0 1 2 3 4 5 9 13 13 13 15 19 20 18 15 13 13 17 19 16 14 13 14 15 13 9 5 3 3 4 5 5 5 5 6 7 8 9 9 7 4 1 0 0
0 0 0 0 0 1 2 3 3 5 7 11 13 13 11 13 18 20 18 16 13 12 15 18 16 13 13 13 13 11 7 4 3 3 3 3 3 3 4 5 6 7 7 7 7 5 2 0 0
0 0 0 0 1 2 3 3 4 6 9 11 12 11 11 12 15 16 16 14 12 12 13 15 15 14 13 12 11 9 6 4 3 3 2 1 1 1 2 4 5 6 5 5 6 5 3 1 0
0 0 0 0 1 2 2 2 3 6 8 10 11 10 11 12 12 12 12 11 10 11 12 13 14 14 13 11 10 9 6 4 3 3 1 0 0 0 1 2 4 4 4 4 4 5 4 2 1
0 0 0 0 0 1 1 1 3 6 7 9 10 10 11 12 12 10 9 9 10 10 11 12 14 14 13 12 10 8 5 4 3 2 1 0 0 0 0 1 2 3 3 3 3 4 5 4 3
0 0 0 0 0 0 0 1 3 5 6 7 8 9 10 11 11 9 7 8 10 11 11 13 14 13 13 13 11 9 6 4 3 2 1 0 0 0 0 0 1 2 3 3 3 3 4 5 5
0 0 0 0 0 0 1 2 3 4 4 5 6 7 9 10 10 8 6 7 10 11 12 14 14 14 13 12 10 9 8 6 4 1 0 0 0 0 0 0 0 1 2 3 3 3 3 4 4
0 0 0 0 0 1 2 3 3 3 3 4 4 5 7 8 7 7 6 6 8 10 11 12 13 13 11 9 7 7 8 8 5 1 0 0 0 0 0 0 0 0 1 3 3 3 3 3 2
0 0 0 0 1 2 3 3 3 3 3 3 3 4 6 6 5 6 6 6 7 8 9 9 10 11 9 5 4 5 7 8 5 1 0 0 0 0 0 0 0 0 1 2 3 3 3 2 1
0 0 0 0 1 2 2 3 3 3 3 2 2 3 3 4 4 5 6 6 6 7 7 8 9 9 7 4 4 5 7 7 4 1 0 0 0 0 0 0 0 0 0 1 2 3 3 3 2
0 0 0 0 0 1 1 1 2 2 1 1 1 1 1 3 4 5 5 5 5 6 6 7 8 7 6 5 5 6 6 5 3 1 0 0 0 0 0 0 0 0 0 0 1 3 3 3 3
0 0 0 0 0 0 0 0 1 1 0 0 0 0 1 2 3 4 4 4 4 5 6 6 6 5 5 6 6 6 5 4 2 0 0 0 0 0 0 0 0 0 0 0 1 2 3 3 3
0 0 0 0 0 0 0 0 0 0 0 0 0 0 1 2 3 3 4 3 3 4 5 6 5 4 4 6 7 6 4 3 2 1 0 0 0 0 0 0 0 0 0 0 0 1 2 3 3
0 0 0 0 0 0 0 0 0 0 0 0 0 0 1 2 3 3 3 3 3 3 4 6 5 4 4 5 7 6 4 3 2 1 0 0 0 0 0 0 0 0 0 0 0 0 1 2 2
0 0 0 0 0 0 0 0 0 0 0 0 0 0 1 3 3 3 3 3 3 3 4 5 5 5 5 6 6 5 4 3 1 0 0 0 0 0 0 0 0 0 0 0 0 0 0 1 1
0 0 0 0 0 0 0 0 0 0 0 0 0 1 2 3 3 3 3 3 3 3 3 4 5 6 6 6 6 5 3 2 1 0 0 0 0 0 0 0 0 0 0 0 0 0 0 0 0
0 0 0 0 0 0 0 0 0 0 0 0 0 1 2 2 3 3 4 4 4 4 3 3 4 5 6 6 5 4 2 1 0 0 0 0 0 0 0 0 0 0 0 0 0 0 0 0 0
0 0 0 0 0 0 0 0 0 0 0 0 0 1 1 1 2 3 4 4 5 5 4 3 4 5 6 6 5 4 1 0 0 0 0 0 0 0 0 0 0 0 0 0 0 0 0 0 0

GEFSSGP_con_probscp_288.txt.gz
Probability
0 0 0 0 0 0 0 0 0 0 0 0 0 0 0 0 0 0 0 1 4 6 8 12 15 15 14 13 13 13 12 11 10 8 5 3 3 2 1 0 0 0 0 0 0 0 0 0 0
0 0 0 0 0 0 0 0 0 0 0 0 0 0 0 0 0 0 0 2 5 7 9 14 16 17 17 16 14 13 13 13 11 7 4 2 3 3 1 0 0 0 0 0 0 0 0 0 0
0 0 0 0 0 0 0 0 0 0 0 0 0 0 0 1 1 1 1 3 7 9 11 16 20 21 22 21 17 15 15 15 14 10 4 2 3 3 2 1 0 0 0 0 0 0 0 0 0
0 0 0 0 0 0 0 0 0 0 0 0 0 0 0 1 2 3 3 6 9 11 13 17 21 24 25 23 20 18 17 16 16 13 7 3 3 3 3 2 2 1 0 0 0 0 0 0 0
1 1 2 1 0 0 0 0 0 0 0 0 0 1 2 3 4 5 6 7 10 12 14 17 21 24 24 21 20 20 19 17 15 13 9 6 4 3 3 4 3 1 0 0 0 0 0 0 0
1 2 2 1 0 0 0 0 0 0 0 0 1 4 6 7 7 8 9 10 11 13 14 17 20 22 21 19 18 20 20 18 15 11 9 6 4 3 3 4 3 1 0 0 0 0 0 0 0
1 2 2 1 0 0 0 0 0 0 0 0 2 6 10 11 12 12 13 13 13 13 15 18 20 20 19 17 17 19 21 20 16 12 9 7 5 4 3 3 3 2 1 0 0 0 0 0 0
1 1 1 0 0 0 0 0 0 0 1 1 3 6 10 14 16 15 14 14 14 14 14 16 18 18 17 17 17 18 20 20 17 12 9 6 6 5 4 3 3 3 2 2 1 1 1 0 0
0 0 0 0 0 0 0 0 0 1 2 3 4 6 10 15 18 16 13 13 14 14 12 13 15 16 16 17 17 17 18 17 15 11 8 5 6 6 4 2 3 3 3 3 3 2 1 0 0
0 0 0 0 0 0 0 0 1 2 3 4 5 6 10 15 17 15 12 11 12 12 11 11 12 13 15 17 17 17 15 14 12 10 7 5 6 6 4 3 3 3 3 4 3 3 1 0 0
0 0 0 0 0 0 0 0 1 2 3 4 5 7 11 14 16 14 11 10 10 9 9 10 10 11 13 16 17 16 15 14 11 8 6 5 6 6 5 4 4 4 4 3 3 2 1 0 0
0 0 0 0 0 0 0 0 1 2 2 3 5 8 11 14 15 13 10 9 8 7 7 9 9 10 11 14 16 16 16 14 10 6 4 4 5 6 5 4 4 5 5 4 3 2 0 0 0
0 0 0 0 0 0 0 0 0 1 2 4 6 10 13 16 16 12 9 7 6 5 6 8 8 9 10 12 14 15 15 13 9 5 3 3 4 4 4 3 3 4 6 6 5 3 1 0 0
0 0 0 0 0 0 0 0 1 2 3 4 7 10 14 18 17 13 9 6 4 5 6 7 8 9 10 10 12 14 13 11 7 4 3 3 3 3 3 2 1 3 5 6 5 3 1 0 0
0 0 0 0 0 0 0 0 1 2 3 4 7 10 14 17 16 13 10 6 4 4 6 6 7 9 10 10 11 12 11 9 6 4 3 3 3 3 3 2 1 1 3 4 4 3 1 0 0
0 0 0 0 0 0 0 0 1 3 4 6 7 10 13 15 14 13 10 6 3 4 6 5 6 8 10 10 10 10 10 9 6 3 2 3 3 3 3 2 1 0 1 2 2 2 1 0 0
0 0 0 0 0 0 0 0 2 4 6 7 9 10 12 13 12 12 10 6 4 4 6 5 5 8 9 9 9 8 9 9 6 3 2 3 3 3 3 2 1 0 0 0 1 2 2 1 0
0 0 0 0 0 0 1 2 2 5 6 7 9 11 11 11 11 10 9 7 5 6 7 6 5 7 9 9 8 7 8 8 5 2 1 2 3 3 3 2 1 0 0 0 0 1 2 1 0
0 0 0 1 1 1 2 2 2 4 6 8 10 11 10 9 10 10 9 7 6 8 9 8 7 7 8 9 7 7 7 6 4 1 0 1 3 3 3 3 1 0 0 0 0 0 1 1 1
0 0 0 1 2 2 2 1 1 2 5 7 9 9 8 7 8 9 8 7 7 9 10 11 9 7 7 7 7 6 6 5 3 1 0 1 2 3 3 3 2 1 0 0 0 0 0 1 1
0 0 0 1 1 1 1 0 0 1 3 5 6 7 7 7 8 8 7 7 8 9 11 12 11 8 5 5 5 4 4 4 3 1 0 1 2 3 3 3 2 1 0 0 0 0 0 0 1
0 0 0 0 0 0 0 0 1 2 3 3 4 5 6 6 6 6 5 6 7 8 10 12 12 8 4 2 3 3 3 3 3 2 1 1 2 3 3 3 1 0 0 0 0 0 0 0 0
0 0 0 0 0 0 0 0 1 2 2 2 3 3 3 3 3 3 3 4 6 7 8 10 11 9 5 2 2 3 3 3 3 3 1 1 2 3 3 2 1 0 0 0 0 0 0 0 0
0 0 0 0 0 0 0 0 1 1 1 1 1 1 1 1 1 0 1 3 5 6 5 7 8 8 6 3 2 3 3 3 3 3 2 1 2 3 3 2 1 0 0 0 0 0 0 0 0
0 0 0 0 0 0 0 0 0 0 0 0 0 0 0 0 0 1 1 2 5 6 5 5 6 7 6 4 2 2 3 3 3 3 2 2 2 3 3 2 1 0 0 0 0 0 0 0 0
0 0 0 0 0 0 0 0 0 0 0 0 0 0 0 0 0 1 1 2 5 6 6 5 5 6 6 4 3 2 1 2 3 3 3 2 3 3 3 1 0 0 0 0 0 0 0 0 0
0 0 0 0 0 0 0 0 0 0 0 0 0 0 0 0 0 1 1 2 5 6 6 6 5 6 6 5 4 2 1 1 1 2 2 3 3 3 2 1 0 0 0 0 0 0 0 0 0
0 0 0 0 0 0 0 0 0 0 0 0 0 0 0 0 0 0 0 2 4 5 6 6 5 5 5 4 3 2 1 0 0 1 1 2 2 2 1 0 0 0 0 0 0 0 0 0 0
0 0 0 0 0 0 0 0 0 0 0 0 0 0 0 0 0 0 1 2 3 4 4 5 5 4 2 2 1 1 1 2 1 0 0 1 1 1 0 0 0 0 0 0 0 0 0 0 0
0 0 0 0 0 0 0 0 0 0 0 0 0 0 0 0 0 1 2 3 3 3 4 4 4 3 2 1 0 1 2 3 2 1 1 1 1 0 0 0 0 0 0 0 0 0 0 0 0

GEFSSGP_con_probscp_294.txt.gz
Probability
0 0 0 0 0 0 0 0 0 0 0 0 0 0 0 0 0 0 0 0 1 2 3 3 6 11 12 11 12 13 11 7 6 7 6 3 1 0 0 0 0 0 0 0 0 0 0 0 0
0 0 0 0 0 0 0 0 0 0 0 0 1 1 0 0 0 0 0 0 1 3 4 6 9 12 13 11 12 12 11 9 8 8 6 3 1 0 0 0 0 0 0 0 0 0 0 0 0
0 0 0 0 0 0 0 0 0 0 0 1 2 2 1 1 1 0 0 1 2 3 5 8 12 14 13 11 10 11 10 10 10 9 6 3 1 0 0 0 0 0 0 0 0 0 0 0 0
0 0 0 0 0 0 0 0 0 0 1 2 3 3 2 2 2 1 1 3 5 5 5 8 12 15 14 12 11 10 10 10 10 9 7 3 2 2 1 1 0 1 1 1 1 0 0 0 0
0 0 0 0 0 0 0 0 0 0 1 2 3 3 4 4 3 2 3 5 7 7 6 7 11 14 14 14 13 12 11 11 11 11 8 4 4 5 4 3 1 1 2 2 2 1 0 0 0
0 0 0 0 0 0 0 0 0 0 1 2 2 3 4 5 5 4 5 8 9 9 8 8 10 12 13 14 14 13 13 13 12 12 10 7 6 7 7 5 3 2 2 3 3 1 0 0 0
0 0 0 0 0 0 0 0 0 0 0 1 1 2 4 7 8 8 9 11 11 10 9 8 7 8 10 12 13 13 13 14 14 13 12 10 7 6 7 6 4 2 2 2 3 2 1 0 1
0 0 0 0 0 0 0 0 0 0 0 1 1 1 4 8 12 14 15 15 13 11 10 9 7 6 8 9 9 10 11 12 14 14 13 11 8 5 4 4 3 2 1 1 2 2 1 1 1
0 0 0 0 0 0 0 0 0 0 1 2 2 3 5 9 13 17 18 17 15 13 10 9 7 6 6 6 6 7 9 10 12 13 13 12 9 5 2 1 2 2 1 0 1 2 1 1 1
0 0 0 0 0 0 0 0 0 0 1 2 3 5 8 9 12 15 16 16 16 14 11 9 9 7 7 6 8 9 10 11 12 13 13 13 11 7 3 1 1 1 0 1 2 2 1 1 0
0 0 0 0 0 0 0 0 0 0 1 2 3 5 8 10 10 11 11 13 14 13 11 10 9 8 7 8 11 13 13 14 15 15 14 14 12 8 5 4 3 1 1 1 3 3 2 1 1
0 0 0 0 0 0 0 0 0 0 0 1 2 3 5 8 8 8 8 10 12 12 11 10 10 9 7 8 12 13 13 16 18 16 15 15 13 9 6 5 4 3 2 3 3 4 3 2 1
0 0 0 0 0 0 0 0 0 0 0 0 1 2 4 5 6 6 7 8 9 11 11 11 11 9 7 8 11 11 12 15 17 16 14 14 12 10 7 5 4 3 3 3 3 3 3 2 1
0 0 0 0 0 0 0 0 0 0 0 1 1 2 4 5 6 6 6 6 8 11 12 11 9 8 7 7 8 9 10 13 15 15 13 11 10 9 8 6 5 4 3 3 3 2 1 1 1
0 0 0 0 0 0 0 0 0 0 1 3 3 3 4 5 6 7 7 6 7 10 11 9 7 7 6 6 5 7 9 11 13 14 12 10 8 8 9 7 5 4 3 3 2 1 0 0 0
0 0 0 0 0 0 0 0 0 0 1 3 3 2 3 5 6 8 8 7 6 8 8 7 6 6 6 5 4 5 7 10 12 12 11 8 6 7 8 7 5 4 3 2 2 1 0 0 0
0 0 0 0 0 0 0 0 1 1 2 2 1 1 2 3 6 8 9 8 7 6 6 5 6 6 6 5 4 4 6 9 10 10 9 7 6 6 6 6 4 3 2 1 1 0 0 0 0
0 0 0 0 0 0 0 0 1 2 2 1 0 1 1 2 4 7 8 8 7 6 5 5 6 6 6 5 4 5 6 8 10 10 8 7 6 6 5 5 4 3 2 1 0 0 0 0 0
0 0 0 0 0 0 0 0 1 2 2 1 1 2 2 1 3 6 7 7 6 5 4 6 6 6 6 5 5 6 6 7 9 10 8 6 6 6 5 4 3 3 2 1 0 0 0 0 0
0 0 0 0 0 0 0 0 1 2 2 1 2 3 3 2 3 6 6 6 5 4 4 5 6 5 4 4 6 6 5 5 6 8 8 7 6 5 5 4 3 3 3 1 0 0 0 0 0
0 0 0 0 0 0 0 0 0 1 1 1 2 3 3 3 4 6 6 6 5 4 4 5 5 4 3 4 6 5 3 2 3 5 7 7 6 5 4 3 3 3 3 2 1 0 0 0 0
0 0 0 0 0 0 0 0 0 0 0 0 1 2 3 4 5 6 6 6 6 6 6 7 7 5 3 5 5 3 1 1 1 2 4 6 6 6 4 2 3 3 3 3 1 0 0 0 0
0 0 0 0 0 0 0 0 0 0 0 0 0 2 3 4 6 6 7 7 7 7 8 10 9 6 4 5 4 1 0 0 0 1 3 6 6 6 4 2 2 3 3 3 2 1 0 0 0
0 0 0 0 0 0 0 0 0 0 0 0 0 1 3 4 5 6 6 6 6 7 8 10 9 6 5 4 3 1 0 0 0 1 3 5 6 6 5 2 2 3 3 3 2 1 0 0 0
0 0 0 0 0 0 0 0 0 0 0 0 0 1 2 3 4 4 4 4 5 6 8 9 10 9 7 5 4 3 1 0 0 2 3 4 6 6 5 2 1 3 3 3 3 1 0 0 0
0 0 0 0 0 0 0 0 0 0 0 0 0 1 2 3 3 3 3 3 4 5 7 9 11 12 10 7 6 4 2 1 1 2 3 4 6 6 4 1 1 2 3 3 3 2 1 0 0
0 0 0 0 0 0 0 0 0 0 0 0 0 1 2 3 3 3 3 3 3 4 5 8 11 14 13 10 7 5 3 2 2 3 3 4 5 4 3 1 0 1 3 3 3 3 1 0 0
0 0 0 0 0 0 0 0 0 0 0 0 0 0 1 2 3 3 3 3 3 4 5 6 9 13 14 12 9 5 3 3 3 3 3 3 2 2 2 1 0 1 2 3 3 3 2 1 0
0 0 0 0 0 0 0 0 0 0 0 0 0 0 0 1 1 2 3 3 3 4 6 6 7 9 12 12 10 6 4 3 3 3 3 1 0 1 2 2 1 1 2 3 3 3 2 1 0
0 0 0 0 0 0 0 0 0 0 0 0 0 0 0 0 0 1 3 3 4 5 6 6 5 7 9 10 10 7 4 3 3 3 2 1 0 1 2 2 1 1 2 3 3 3 1 0 0

GEFSSGP_con_probscp_300.txt.gz
Probability
0 0 0 0 0 0 0 0 0 0 0 0 0 0 1 2 3 4 2 4 8 9 10 14 16 14 13 13 13 10 8 6 4 4 5 6 6 5 4 3 2 1 0 0 0 0 0 0 0
0 0 0 0 0 0 0 0 0 0 0 0 0 1 2 3 4 3 3 6 10 10 11 15 17 16 14 14 14 13 10 7 4 3 4 5 6 5 4 3 2 1 0 0 0 0 0 0 0
0 0 0 0 0 0 0 0 0 0 0 0 0 1 2 3 3 3 5 9 12 11 13 18 21 19 16 14 14 15 13 8 5 3 4 5 6 5 4 3 2 1 0 0 0 0 0 0 0
1 0 0 0 0 0 0 0 0 0 0 0 0 1 3 4 5 5 7 11 12 12 15 21 24 22 18 16 15 14 13 9 5 3 4 5 5 5 4 3 1 0 0 0 0 0 0 0 0
2 1 0 0 0 0 0 0 0 0 1 1 0 1 3 6 8 8 9 10 11 13 16 22 25 24 21 18 15 13 12 10 7 5 6 7 6 4 3 2 1 1 2 2 0 0 0 1 1
2 1 0 0 0 0 0 0 0 1 2 2 2 2 4 7 10 11 9 8 11 15 17 19 22 23 22 20 17 14 11 11 9 6 6 7 7 5 4 2 2 3 5 4 2 1 0 0 0
2 1 0 0 0 0 0 0 0 1 2 2 2 3 4 6 9 10 10 10 14 17 17 15 16 18 20 20 18 14 11 10 10 7 5 6 7 8 7 5 4 4 6 6 4 2 1 0 0
1 0 0 0 0 0 0 0 0 0 1 1 1 3 4 6 8 10 12 14 18 20 18 14 12 13 16 16 15 12 10 10 10 5 3 5 7 9 9 7 6 5 6 6 4 2 1 0 0
0 0 0 0 0 0 0 0 0 0 0 1 1 3 5 7 9 11 14 17 20 21 19 14 11 10 11 12 12 11 9 9 8 4 2 4 7 9 9 7 6 7 6 5 3 1 0 0 0
0 0 0 0 0 0 0 0 0 0 0 1 2 4 6 8 9 11 14 18 20 21 20 16 12 10 10 10 11 12 10 8 6 4 2 4 7 10 8 6 5 6 5 4 2 1 0 0 0
0 0 0 0 0 0 0 0 0 0 0 1 2 4 6 8 9 10 12 15 18 20 21 18 14 11 10 11 13 13 11 8 6 5 4 6 9 10 9 6 4 4 3 2 1 0 0 0 0
0 0 0 0 0 0 0 0 0 0 0 0 1 3 5 7 9 9 9 10 13 16 18 18 16 12 11 12 13 13 11 8 7 7 5 7 10 11 9 7 6 4 2 1 0 0 0 0 0
0 0 0 0 0 0 0 0 0 0 0 0 1 3 4 6 8 9 7 7 10 13 15 16 15 13 11 12 13 13 11 8 7 8 7 7 10 12 11 9 7 5 3 1 1 1 1 1 1
0 0 0 0 0 0 0 0 0 0 0 0 1 2 3 5 7 7 6 5 7 10 13 14 12 10 10 12 13 13 11 8 7 8 7 6 8 12 12 10 8 7 5 3 2 2 2 1 0
0 0 0 0 0 0 0 0 0 0 0 0 0 1 3 4 4 5 4 3 5 7 10 11 9 7 8 11 13 12 10 7 7 7 6 5 7 11 13 12 9 7 5 3 3 2 1 0 0
0 0 0 0 0 0 0 0 0 0 0 0 0 1 2 2 2 2 3 2 2 5 9 10 9 8 8 10 11 11 9 6 5 6 5 4 5 9 12 12 9 6 4 2 2 1 0 0 0
0 0 0 0 0 0 0 0 0 0 0 0 0 1 1 1 0 1 3 3 2 4 8 11 10 9 10 10 9 8 6 5 4 4 4 3 3 6 10 11 8 6 4 1 0 0 0 0 0
0 0 0 0 0 0 0 0 0 0 0 0 0 1 1 0 0 1 2 3 3 4 7 10 10 9 9 9 7 5 4 3 3 3 3 2 2 5 9 10 9 7 5 2 0 0 0 0 0
0 0 0 0 0 0 0 0 0 0 0 0 1 1 1 0 0 0 1 3 3 4 7 9 9 7 6 7 6 4 2 2 3 4 4 3 2 4 7 9 9 8 6 3 1 0 0 0 0
0 0 0 0 0 0 0 0 0 0 0 0 1 1 1 0 0 0 1 2 3 4 7 10 8 5 3 4 6 4 3 3 3 4 4 2 1 2 4 6 8 8 6 3 1 1 0 0 0
0 0 0 0 0 0 0 0 0 0 0 0 0 0 0 0 0 0 1 2 3 4 7 9 7 3 1 3 7 5 3 3 4 3 2 1 0 0 1 3 5 7 6 4 3 2 1 0 0
0 0 0 0 0 0 0 0 0 0 0 0 0 0 0 0 0 0 1 2 3 4 5 7 5 2 1 3 6 5 4 4 4 3 1 0 0 0 0 1 3 6 6 4 3 3 2 1 0
0 0 0 0 0 0 0 0 0 0 0 0 0 0 0 0 1 0 1 2 3 4 4 5 4 2 1 3 4 4 3 3 3 2 1 0 0 0 0 1 2 4 5 5 4 3 3 1 0
0 0 0 0 0 0 0 0 0 0 0 0 0 0 0 0 0 0 1 3 5 5 4 4 4 2 1 2 2 2 2 2 2 1 0 0 0 0 0 0 1 3 5 5 5 4 3 2 1
0 0 0 0 0 0 0 0 0 0 0 0 0 0 0 0 0 0 2 5 6 6 5 4 4 2 1 1 1 1 1 0 0 0 0 0 0 0 0 0 1 3 4 4 5 5 4 3 3
0 0 0 0 0 0 0 0 0 0 0 0 0 0 0 0 0 0 1 3 6 6 6 5 5 3 1 0 0 0 0 0 0 0 0 0 0 0 0 0 1 2 3 4 4 4 3 3 3
0 0 0 0 0 0 0 0 0 0 0 0 0 0 0 0 0 0 0 1 4 5 6 6 6 5 3 2 1 0 0 0 0 0 0 0 0 0 0 0 0 1 3 4 4 3 2 3 3
0 0 0 0 0 0 0 0 0 0 0 0 0 0 0 0 0 0 0 1 3 4 5 6 6 6 6 5 3 1 1 0 0 0 0 0 0 0 0 0 0 0 2 3 3 2 1 2 3
0 0 0 0 0 0 0 0 0 0 0 0 0 0 0 0 0 0 0 1 2 3 4 5 6 6 6 6 5 4 3 1 1 1 1 1 1 1 1 1 0 0 0 1 2 1 0 1 2
0 0 0 0 0 0 0 0 0 0 0 0 0 0 0 0 0 0 0 0 1 3 4 5 6 6 6 6 6 6 4 3 2 2 2 2 2 2 2 2 1 0 0 0 1 0 0 0 1

GEFSSGP_con_probscp_306.txt.gz
Probability
0 0 0 0 0 0 0 0 0 0 0 0 0 0 0 0 0 1 1 0 0 1 4 10 15 17 15 12 10 8 5 4 6 6 6 6 6 6 5 4 3 3 3 3 3 3 3 3 3
0 0 0 0 0 0 0 0 0 0 0 0 0 0 0 0 1 2 2 1 1 3 7 12 17 19 18 14 12 10 7 5 6 6 6 6 6 6 5 4 3 3 3 3 3 3 3 4 4
0 0 0 0 0 0 0 0 0 0 0 0 0 0 0 1 2 3 3 2 1 3 9 15 20 22 20 17 14 12 10 7 6 7 6 6 6 6 6 4 3 3 3 3 3 3 4 4 3
0 0 0 0 0 0 0 0 0 0 0 0 0 0 1 1 2 3 3 2 1 2 9 17 21 22 21 19 17 14 11 8 7 7 7 6 6 6 6 5 4 3 3 3 3 3 3 3 2
0 0 0 0 0 0 0 0 0 0 0 0 0 1 2 3 3 2 2 1 1 3 9 17 22 23 23 22 20 16 12 9 8 8 7 6 6 6 6 6 4 3 3 3 3 3 3 1 0
0 0 0 0 0 0 0 0 0 0 0 0 0 1 4 5 4 2 2 2 3 6 11 17 21 23 24 23 22 18 13 9 8 8 7 7 6 6 6 6 4 3 3 3 3 3 2 1 0
0 0 0 0 0 0 0 0 0 0 0 0 0 1 4 5 4 3 3 4 7 11 15 17 19 21 22 22 21 19 15 11 9 9 8 6 5 5 5 6 5 5 5 5 4 3 1 0 0
0 0 0 0 0 0 0 0 0 0 0 0 0 1 3 5 4 3 4 5 8 11 14 17 18 18 18 19 19 18 16 12 10 9 8 5 3 3 4 5 6 7 8 8 7 5 2 1 0
0 0 0 0 0 0 0 0 0 0 0 0 0 1 3 5 5 4 4 5 7 9 10 14 16 16 15 15 16 15 13 11 9 8 7 4 1 1 2 4 6 8 9 10 9 6 3 1 1
0 0 0 0 0 0 0 0 0 0 0 0 0 0 2 4 5 5 4 5 7 7 7 10 13 14 13 13 14 13 11 10 8 7 6 4 1 1 1 3 6 9 10 10 10 6 3 1 0
0 0 0 0 0 0 0 0 0 0 0 0 0 0 1 2 3 4 4 5 6 7 7 10 12 12 11 12 13 12 11 10 9 7 4 3 1 1 2 4 7 9 9 9 8 6 2 0 0
0 0 0 0 0 0 0 0 0 0 0 0 0 0 1 1 1 2 3 4 6 7 8 9 11 10 8 9 11 12 11 10 9 6 4 2 1 1 3 5 7 8 8 7 6 4 1 0 0
0 0 0 0 0 0 0 0 0 0 0 0 0 0 0 0 0 0 2 4 6 7 7 9 9 8 6 6 9 11 11 10 9 6 4 2 1 1 3 4 6 7 7 5 4 3 1 0 0
0 0 0 0 0 0 0 0 0 0 0 0 0 0 0 0 0 0 1 4 6 6 7 7 8 7 5 5 7 10 10 10 8 6 4 3 1 0 1 2 4 6 7 6 4 3 1 0 0
0 0 0 0 0 0 0 0 0 0 0 0 0 0 0 0 0 0 1 3 5 6 6 7 7 6 5 5 7 8 9 9 7 6 5 3 1 0 0 0 2 5 7 7 6 3 1 0 0
0 0 0 0 0 0 0 0 0 0 0 0 0 0 0 0 0 0 1 3 4 5 6 6 7 7 6 5 6 7 7 7 6 6 6 3 1 0 0 0 1 3 6 8 7 4 1 0 0
0 0 0 0 0 0 0 0 0 0 0 0 0 0 0 0 0 0 1 2 3 4 6 6 7 8 7 5 6 6 6 5 6 6 6 3 1 0 0 1 1 2 4 7 7 4 1 0 0
0 0 0 0 0 0 0 0 0 0 0 0 0 0 0 0 0 0 0 1 2 4 5 6 7 8 8 6 5 5 4 4 4 5 4 3 1 0 0 0 0 1 3 5 6 5 2 0 0
0 0 0 0 0 0 0 0 0 0 0 0 0 0 0 0 0 0 0 0 1 3 4 6 7 8 8 6 4 3 2 2 3 3 2 2 2 1 0 0 0 0 2 3 4 4 3 1 0
0 0 0 0 0 0 0 0 0 0 0 0 0 0 0 0 0 0 0 0 1 2 4 5 6 7 9 7 3 1 1 1 1 1 1 1 2 1 0 0 0 0 1 2 3 2 2 1 1
0 0 0 0 0 0 0 0 0 0 0 0 0 0 0 0 0 0 0 0 0 1 3 4 6 7 9 7 3 1 1 1 1 0 0 1 1 0 0 0 0 0 0 1 1 1 1 1 0
0 0 0 0 0 0 0 0 0 0 0 0 0 0 0 0 0 0 0 0 0 1 2 4 6 7 8 7 4 2 2 2 1 0 0 0 0 0 0 0 0 0 0 0 0 0 0 0 0
0 0 0 0 0 0 0 0 0 0 0 0 0 0 0 0 0 0 0 0 0 0 1 3 6 7 7 6 4 3 2 1 0 0 0 0 0 0 0 0 0 0 0 0 0 0 0 0 0
0 0 0 0 0 0 0 0 0 0 0 0 0 0 0 0 0 0 0 0 0 0 1 3 5 6 6 6 4 3 2 0 0 0 0 0 0 0 0 0 0 0 0 0 0 0 0 0 1
0 0 0 0 0 0 0 0 0 0 0 0 0 0 0 0 0 0 0 1 1 1 1 3 4 5 6 6 4 3 2 1 0 0 0 0 0 0 0 0 0 0 0 0 0 0 0 0 1
0 0 0 0 0 0 0 0 0 0 0 0 0 0 0 0 0 0 0 1 2 2 3 4 4 5 6 6 5 4 2 1 0 0 0 0 1 1 0 0 0 0 0 0 0 0 0 0 1
0 0 0 0 0 0 0 0 0 0 0 0 0 0 0 0 0 0 0 1 2 3 4 5 5 5 6 6 6 4 2 1 0 0 0 1 2 1 0 0 0 0 0 0 0 0 0 0 0
0 0 0 0 0 0 0 0 0 0 0 0 0 0 0 0 0 0 0 0 1 3 4 5 6 6 6 7 6 4 2 1 0 0 0 1 2 1 0 0 0 0 0 0 0 0 0 0 0
0 0 0 0 0 0 0 0 0 0 0 0 0 0 0 0 0 0 0 0 1 2 3 4 5 6 7 8 8 6 2 0 0 0 0 1 2 1 0 0 0 0 0 0 0 0 0 0 0
0 0 0 0 0 0 0 0 0 0 0 0 0 0 0 0 0 0 0 0 0 1 3 4 5 6 7 8 9 7 3 1 0 0 0 1 2 1 0 0 0 0 0 0 0 0 0 0 0